Location: Ladrillo (historical)
(32.8195°N, 117.2231°W)
Time: 03:43:56
(UTC+00:00)

Cosmos 2026 Rocket - Pass Details

Date: 29 October 2020
Orbit: 939 x 1002 km, 82.9° (Epoch: 26 November)

Event Time Altitude Azimuth Distance (km) Brightness Sun altitude
Rises 12:56:35 0° 197° (SSW) 3,699 6.9 -14.8°
Reaches altitude 10° 12:59:10 10° 202° (SSW) 2,758 6.2 -14.3°
Maximum altitude 13:05:21 54° 279° (W) 1,204 4.1 -13.0°
Drops below altitude 10° 13:11:35 10° 356° (N) 2,775 6.2 -11.7°
Sets 13:14:11 0° 1° (N) 3,724 7.0 -11.2°
